Location: Appletree Creek
(38.7363°N, 122.6833°W)
Time: 09:29:00
(UTC+00:00)

USA 307 - Pass Details

Date: 18 September 2020
Orbit: 567 x 582 km, 54.0° (Epoch: 19 October)

Event Time Altitude Azimuth Distance (km) Brightness Sun altitude
Exits shadow 12:26:47 20° 311° (NW) 1,338 4.5 -17.8°
Maximum altitude 12:27:52 22° 333° (NNW) 1,262 4.5 -17.6°
Drops below altitude 10° 12:31:12 10° 25° (NNE) 1,867 6.1 -17.0°
Sets 12:33:52 0° 41° (NE) 2,767 7.4 -16.5°
